Regional Weather Roundup
Issued by NWS

Home | Current Version | Previous Version | Text Only | Print | Product List | Glossary Off
Versions: 1 2 3 4 5 6 7 8 9 10 11 12 13 14 15 16 17 18 19 20 21 22 23 24 25 26 27 28 29 30 31 32 33 34 35 36 37 38 39 40 41 42 43 44 45 46 47 48 49 50

000
ASUS43 KLOT 010406
RWRIL

ILLINOIS REGIONAL WEATHER ROUNDUP
NATIONAL WEATHER SERVICE CHICAGO/ROMEOVILLE IL
1100 PM CDT SUN AUG 31 2014

NOTE: "FAIR" INDICATES FEW OR NO CLOUDS BELOW 12,000 FEET WITH NO
SIGNIFICANT WEATHER AND/OR OBSTRUCTIONS TO VISIBILITY.

* THESE STATIONS ARE NOT UNDER NWS QUALITY CONTROL. THEY ALSO MAY NOT
  REPORT WEATHER SUCH AS PRECIPITATION OR FOG.

ILZ001-002-007-009-015-016-024-010500-
NORTHWEST ILLINOIS

CITY           SKY/WX    TMP DP  RH WIND       PRES   REMARKS
MOLINE         CLOUDY    74  69  85 S10       29.81S
STERLING*      MOCLDY    73  70  88 S5        29.84S
SAVANNA*       CLOUDY    75  70  85 S8        29.81F
$$

ILZ003-004-008-010-011-017-018-010500-
NORTH CENTRAL ILLINOIS

CITY           SKY/WX    TMP DP  RH WIND       PRES   REMARKS
ROCKFORD       MOCLDY    74  69  85 S13       29.85S
FREEPORT*      MOCLDY    73  70  92 S14       29.85F
ROCHELLE*      PTCLDY    72  69  91 S7        29.86S
DE KALB*       PTCLDY    69  67  95 SE8       29.88S FOG
PERU*          PTCLDY    74  70  87 SE9       29.87S
$$

ILZ005-006-012>014-019>023-010500-
NORTHEAST ILLINOIS

CITY           SKY/WX    TMP DP  RH WIND       PRES   REMARKS
CHICAGO-OHARE  CLEAR     75  67  76 S8        29.88R
CHICAGO-MIDWAY PTCLDY    78  71  79 S6        29.88R HX  80
AURORA         CLEAR     72  68  87 S8        29.88R FOG
LANSING*         N/A    N/A N/A N/A MISG        N/A
JOLIET*        CLEAR     73  69  87 CALM      29.89S
WAUKEGAN       PTCLDY    74  67  78 S8        29.86R
DUPAGE AIRPORT CLEAR     72  69  90 S7        29.88R
KANKAKEE*      CLEAR     72  70  93 S7        29.92R
WHEELING       CLEAR     77  69  76 S9        29.88R
MORRIS*        CLEAR     73  72  99 S3        29.88S FOG
ROMEOVILLE*    CLEAR     73  70  93 S7        29.89S
NORTHERLY ISL    N/A     77  68  73 S6          N/A
$$

LMZ740>746-010500-
SOUTHERN LAKE MICHIGAN

STATION/POSITION SKY/WX   TEMP    WIND        PRES    VSBY  WAVE
                          AIR SEA DIR/SP/G                  HT/PER
                          (F)     (DEG/KT/KT) (MB)    (MI)  (FT/S)
SOUTHERN BUOY              73 70  170/ 12/ 14 1011.0R         1/ 2
WAUKEGAN HARBOR            73     190/ 10/ 10   N/A
HARRISON CRIB              76     180/ 12/ 13   N/A
BURNHAM HARBOR             76     190/  3/  8   N/A
CALUMET HARBOR             76     180/  4/  7 1010.9R
MICHIGAN CITY              75     150/  7/ 12   N/A
MICHIGAN CITY 6N           74 74  170/  6/  8   N/A           1
ST. JOSEPH                 74 74  150/  8/ 10   N/A           1
$$

ILZ025>027-034>036-040-047-049-050-058-095>099-010500-
WEST-CENTRAL ILLINOIS

CITY           SKY/WX    TMP DP  RH WIND       PRES   REMARKS
QUINCY         MOCLDY    76  70  82 S9        29.83F
GALESBURG*     MOCLDY    72  69  91 S6        29.85R
MACOMB*        MOCLDY    73  70  92 S7        29.86F
JACKSONVILLE*  CLEAR     77  73  85 S9        29.88S
PITTSFIELD*    PTCLDY    75  71  86 SE3       29.87S
$$

ILZ028>032-037-038-041>044-048-051>054-059>061-010500-
CENTRAL ILLINOIS

CITY           SKY/WX    TMP DP  RH WIND       PRES   REMARKS
PONTIAC        CLEAR     73  72  94 S8        29.89S
DECATUR        CLEAR     73  71  93 S9        29.92R
PEORIA         CLEAR     77  70  79 S12       29.86F
LACON*         CLEAR     74  69  85 S8        29.85F
LINCOLN*       CLEAR     74  72  91 S5        29.86F
SPRINGFIELD    CLEAR     76  71  85 S10       29.88F
TAYLORVILLE    CLEAR     72  70  94 SE8       29.91S
$$

ILZ033-039-045-046-055>057-062-063-010500-
EAST-CENTRAL ILLINOIS

CITY           SKY/WX    TMP DP  RH WIND       PRES   REMARKS
CHAMPAIGN      CLEAR     73  71  93 S6        29.94R
DANVILLE*      CLEAR     73  71  94 S7        29.92R
RANTOUL*       CLEAR     73  69  88 SE5       29.94R
MATTOON        PTCLDY    74  71  91 S6        29.93R
PARIS*         CLEAR     72  71  96 S6        29.95R
$$

ILZ079-100>102-010500-
SOUTHWEST ILLINOIS

CITY           SKY/WX    TMP DP  RH WIND       PRES   REMARKS
BELLEVILLE     PTCLDY    74  74  99 E3        29.90R
CAHOKIA*       PTCLDY    76  72  87 S5        29.89R
SPARTA*        CLEAR     76  72  87 S8        29.93R
$$

ILZ064>066-069>071-074>076-080>082-084>086-088>090-092>094-010500-
SOUTH-CENTRAL ILLINOIS

CITY           SKY/WX    TMP DP  RH WIND       PRES   REMARKS
CARBONDALE     CLEAR     76  71  85 S9        29.93R
CAIRO*         PTCLDY    79  73  81 S8        29.95S HX  82
EFFINGHAM*     PTCLDY    75  69  81 S5        29.94R
MARION         CLEAR     77  73  88 S10       29.94S
MT. VERNON     CLEAR     75  68  78 S6        29.94R
CENTRALIA*     CLEAR     73  70  88 S9G16     29.93R
SALEM*         CLEAR     76  73  88 S6        29.93R
METROPOLIS*    PTCLDY    77  73  88 S5        29.95S
$$

ILZ067-068-072-073-078-083-087-091-010500-
SOUTHEAST ILLINOIS

CITY           SKY/WX    TMP DP  RH WIND       PRES   REMARKS
LAWRENCEVILLE  CLEAR     74  73  97 S6        29.95R
FLORA*         CLEAR     73  71  94 S6        29.94S
FAIRFIELD*     CLEAR     75  73  94 S5        29.94R
HARRISBURG*    CLEAR     75  72  92 S3        29.96S
ROBINSON*      PTCLDY    75  73  94 S5        29.95R
CARMI*         CLEAR     73  72  97 SE3       29.95R
$$

ABBREVIATIONS USED IN REMARKS
   TC - TEMPERATURE IN CELSIUS
  WCI - WIND CHILL INDEX
   HX - HEAT INDEX
  VSB - VISIBILITY
$$



USA.gov is the U.S. government's official web portal to all federal, state and local government web resources and services.